Location: Chodimella
(16.7386°N, 81.0911°E)
Time: 06:30:50
(UTC+00:00)

Daily predictions for brighter satellites

Satellite Brightness Start Highest point End
(mag) Time Altitude Azimuth Time Altitude Azimuth Time Altitude Azimuth
Cosmos 1666 Rocket 3.9 12:34:53 10° N 12:39:18 76° W 12:43:42 10° S
COSMO-SKYMED 1 2.4 12:36:11 10° NNE 12:40:15 65° E 12:44:19 10° S
Cosmos 1190 Rocket 4.1 12:35:19 10° NNW 12:40:30 87° WSW 12:45:41 10° SSE
AQUARIUS 4.1 12:36:18 10° SSE 12:40:40 69° ENE 12:45:02 10° N
SJ-12 3.7 12:37:19 10° SSE 12:41:06 78° ENE 12:44:53 10° N
NOSS 3-2 (C) 4.4 12:35:17 10° NNW 12:43:41 60° ENE 12:52:56 10° SE
SL-8 Rocket 4.0 12:37:50 10° N 12:43:59 75° E 12:50:06 10° S
ATLAS 5 CENTAUR R/B -0.6 12:45:57 10° WNW 12:48:07 55° N 12:50:04 10° E
Delta 2 Rocket 4.2 12:43:02 10° WNW 12:50:42 72° NNE 12:57:06 10° ESE
Cosmos 676 Rocket 3.9 12:49:22 10° N 12:54:32 70° ENE 12:59:45 10° SSE
SAR-Lupe-4 3.4 12:51:04 10° SSE 12:54:36 72° ENE 12:58:09 10° N
SWIFT 1.9 12:53:49 10° WNW 12:57:05 53° N 12:59:58 13° E
YAOGAN 1 3.1 12:53:54 10° SE 12:57:45 34° ENE 13:01:36 10° N
SL-4 R/B 3.7 12:56:11 10° NNE 12:57:52 12° NE 12:58:43 12° ENE
Resurs 01 Rocket 3.3 12:56:21 10° E 12:58:16 13° ENE 13:00:11 10° NE
IRS-P3 4.1 12:53:49 10° SSE 12:59:06 79° ENE 13:04:24 10° N
Meteor 1-15 Rocket 4.4 12:53:32 10° N 12:59:25 84° W 13:05:11 10° S
GPS 2-17 Rocket1 3.2 12:55:39 10° WNW 13:00:09 59° N 13:04:00 13° E
Meteosat 1 Rocket2 3.6 13:00:52 10° W 13:04:33 44° NNW 13:08:30 14° NE
PSLV R/B 4.3 13:01:22 10° SE 13:04:51 27° ENE 13:08:20 10° NNE
Okean 3 3.4 13:03:04 10° S 13:07:10 86° W 13:11:13 10° N
Cosmos 1821 Rocket 3.9 13:02:08 10° N 13:08:13 65° E 13:14:13 10° SSE
Cosmos 1992 Rocket 4.0 13:03:12 10° S 13:08:16 60° ESE 13:13:21 10° NNE
Spot 4 Rocket 4.2 13:07:09 10° SSE 13:12:01 46° ENE 13:16:53 10° N
IUS-7 SRM-1 3.8 13:11:12 10° W 13:14:52 25° NNW 13:16:09 16° NNE
Helios 1A Rocket 2.3 13:12:42 10° N 13:16:00 84° WNW 13:19:17 10° SSW
SJ 16-02 3.6 13:12:27 10° NW 13:16:03 27° W 13:19:40 10° SSW
Sylda 5 4.4 13:06:04 10° WSW 13:16:30 33° SSW 13:20:14 10° ESE
Cosmos 1833 Rocket 2.6 13:16:53 10° SSW 13:22:30 84° ESE 13:28:09 10° NNE
Cosmos 1340 Rocket 2.9 13:24:19 10° N 13:27:59 45° E 13:31:40 10° SSE
Cosmos 1953 4.1 13:25:05 10° NNW 13:28:21 30° W 13:31:35 10° SSW
BlueWalker 3 2.9 13:27:30 10° S 13:30:30 25° ESE 13:30:35 25° ESE
Radarsat Rocket 4.2 13:23:39 10° SSE 13:30:36 65° ENE 13:36:47 10° N
Aurora 2 Rocket 3.4 13:31:15 10° NW 13:33:42 21° N 13:33:42 21° N
OAO 2 Rocket 4.0 13:29:48 10° NW 13:34:07 31° NNE 13:34:59 29° NE
Cosmos 1933 Rocket 3.8 13:36:45 10° NNW 13:41:04 67° W 13:45:20 10° S
Milstar 3 4.3 13:33:51 10° W 13:43:24 70° NNW 13:54:50 26° ENE
H-2A R/B 3.6 13:39:00 10° WNW 13:44:00 82° SSW 14:24:26 10° ESE
CZ-2D R/B 4.4 13:41:08 10° S 13:44:54 45° W 13:48:36 10° NNW
Okean 1-7 2.7 13:42:58 10° S 13:47:04 68° E 13:48:02 48° NNE
Meteor 2-8 Rocket 4.4 13:43:48 10° N 13:49:51 60° E 13:55:54 10° SSE
Cosmos 332 Rocket 4.1 13:46:16 10° NNW 13:50:59 65° WSW 13:55:44 10° S
USA 305 2.3 13:49:22 10° SW 13:52:14 75° SW 13:52:14 75° SW
Cosmos 1934 Rocket 4.1 13:47:23 10° N 13:53:22 51° E 13:59:25 10° SSE
USA 238 DEB 4.1 13:46:50 10° NNW 13:54:35 54° ENE 14:02:35 10° SE
USA 238 4.1 13:46:57 10° NNW 13:54:41 53° ENE 14:02:41 10° SE
Timation 1 Rocket 4.4 13:49:32 10° S 13:55:18 54° ESE 13:56:30 46° ENE
CARTOSAT-1 3.7 13:52:26 10° S 13:56:36 68° WSW 14:00:47 10° NNW
Haruka 3.5 13:44:06 10° WSW 13:58:22 82° NNW 13:59:52 48° NE
IRAS Rocket 4.1 13:55:10 10° SSE 14:00:37 84° ENE 14:06:08 10° NNW
SL-24 R/B 4.2 13:58:14 10° S 14:03:02 83° E 14:05:36 29° N
Delta 7925 Rocket 4.4 14:06:53 10° W 14:14:23 51° NNW 14:15:29 46° NNE
Delta 168 4.4 14:15:02 10° WSW 14:17:01 28° WSW 14:17:01 28° WSW
OAO 3 Rocket 4.4 14:14:32 10° NW 14:17:21 33° NNW 14:17:21 33° NNW
Meteor 2-5 Rocket 3.9 14:15:27 10° S 14:19:48 56° SSE 14:19:48 56° SSE
Resurs 01 Rocket 3.4 14:30:28 10° SSW 14:34:17 30° W 14:37:59 10° NW
Meteor 1-24 Rocket 3.9 14:29:18 10° SSW 14:34:12 63° WSW 14:34:12 63° WSW
Intelsat 5-3 Rocket 4.0 14:29:25 10° WNW 14:35:21 42° NW 14:35:21 42° NW
Cosmos 2082 Rocket 3.8 14:49:14 10° SSW 14:51:40 27° SSW 14:51:40 27° SSW
ATLAS 2AS CENTAUR RB 4.1 15:20:12 10° WSW 15:32:33 40° WSW 15:32:33 40° WSW
ATLAS 2AS CENTAUR RB 4.4 22:25:36 37° SSW 22:27:38 41° S 23:07:49 10° ESE
ATLAS 2AS CENTAUR RB 4.4 22:25:36 37° SSW 22:27:39 41° S 23:07:49 10° ESE
ATLAS 2AS CENTAUR RB 4.4 22:25:35 37° SSW 22:27:39 41° S 23:07:49 10° ESE
Cosmos 1943 Rocket 4.5 22:26:51 10° SSE 22:30:46 20° ESE 22:34:40 10° ENE
Ariane H10+ 4.2 22:34:39 17° SE 22:34:39 17° SE 22:35:49 10° SE
CZ-3C R/B 2.5 22:39:06 63° NE 22:39:06 63° NE 22:56:27 10° E
Centaur D-1AR AC-48 2.5 23:04:45 68° NW 23:05:28 77° N 23:09:25 10° E
SL-16 R/B 3.0 23:02:09 10° S 23:06:42 45° SSW 23:06:42 45° SSW
Atlas Centaur 2 2.9 23:10:01 38° NNE 23:10:01 38° NNE 23:14:38 10° NE
UNK 3.9 23:08:28 10° SSE 23:12:59 65° ENE 23:13:16 63° NE
USA 215 4.2 23:14:47 10° S 23:19:47 29° SW 23:19:47 29° SW
ASC 2 Rocket 3.8 23:21:22 45° N 23:21:22 45° N 23:25:01 10° ENE
Nadezhda 1 Rocket 3.9 23:20:55 42° NNW 23:23:07 70° W 23:29:25 10° S
Cosmos 1110 Rocket 3.8 23:23:00 55° NNW 23:24:09 90° WSW 23:29:19 10° SSE
BlueWalker 3 3.9 23:27:09 19° NNE 23:27:57 20° NE 23:30:41 10° E
TIMED 4.4 23:24:19 10° S 23:28:33 83° E 23:32:47 10° NNE
Okean 3 Rocket 3.6 23:24:29 10° S 23:28:48 78° E 23:33:10 10° N
CZ-4 R/B 4.0 23:27:53 10° NNE 23:32:44 75° ESE 23:37:38 10° S
Cosmos 1452 Rocket 3.6 23:31:36 23° N 23:34:59 76° ENE 23:40:13 10° SSE
SL-12 R/B(2) 3.9 23:29:52 10° SSW 23:37:06 81° WNW 23:45:16 10° NNE
Sich 1 2.8 23:35:48 10° S 23:40:02 86° W 23:44:14 10° N
Cosmos 1500 Rocket 4.4 23:37:13 10° SSE 23:41:22 50° E 23:45:32 10° NNE
SeaSat 1 3.8 23:37:33 10° NE 23:42:07 40° ESE 23:46:39 10° S
Molniya-1 4.5 23:39:49 10° S 23:43:33 36° ESE 23:45:56 10° NE
Timation 2 Rocket 4.0 23:38:19 10° SSW 23:45:07 77° WNW 23:51:43 10° NNE
Hubble Space Telescope 0.4 23:46:16 60° WNW 23:46:54 88° NNE 23:50:41 10° ESE
Cosmos 1408 Rocket 3.7 23:42:39 10° S 23:47:00 74° E 23:51:19 10° N
Meteor 1-13 Rocket 4.3 23:42:49 13° NNW 23:48:08 64° W 23:53:54 10° S
Cosmos 2278 Rocket 2.1 23:43:44 10° SSW 23:49:18 66° WNW 23:54:54 10° N
NOAA 12 4.1 23:46:37 10° N 23:51:41 53° WNW 23:56:45 10° SSW
Cosmos 1140 Rocket 3.6 23:47:08 10° S 23:52:12 75° ESE 23:57:15 10° NNE
Delta 2 Rocket 2.7 23:54:03 52° WNW 23:54:31 59° NNW 23:57:46 10° NE
EPKM 1.9 23:56:22 42° SW 23:56:42 46° SSW 23:58:43 10° SE
